(804) Hispania
ephemeris date magn radius delta ra dec elong phase
Today24 Aug 202612.82.579 AU2.185 AU16h31m-39°27'101.1°22.6°
Opposition19 Oct 202711.52.576 AU1.604 AU01h14m+24°56'164.2°6.1°
(804) Hispania - 2026-08-24
astro.vanbuitenen.nl


 
-1 year
-1 month
-1 day
Now
+1 day
+1 month
+1 year

The interactive orbit chart above shows the body's path through the solar system and its position at the given date. Green and blue lines are shown perpendicular to the ecliptic plane: Green if the path is above the ecliptic plane, blue if it is below. (Left-click and drag to rotate the view; Right-click and drag to move the view; Use scroll wheel to zoom in our out.)

The orbital elements of Hispania are:

            e (Eccentricity)                : 0.1415579
            a (Semimajor axis)              : 2.8376031
            i (Inclination)                 : 15.38610
            Ω (Longitude of ascending node) : 347.53685
            ω (Argument of perihelion)      : 343.76984
            M (Mean anomaly)                : 300.69557
            Epoch                           : 2026 Jun 09

            L (Longitude of perihelion)     : 331.85929
            B (Latitude of perihelion)      : -4.25277
            P (Orbital period in years)     : 4.78            
        

The light curve chart below shows the estimated development of the minor planet's magnitude.


The all-sky chart below shows the path of the minor planet over the same period as the light curve. The current position is marked yellow.





The following chart shows the path of the minor planet in the next few days. The field of view is optimized for (~10x50) binoculars and finderscopes.




Ephemerides:
Date       Time       RA (2000)    DEC (2000)    delta   radius  elong  phase   PA    magn
2026-08-24 00:00 UT   16 31 02.6   -39 27 26     2.185    2.579  101.1   22.6    96   12.8 
2026-08-24 11:28 UT   16 31 30.8   -39 24 50     2.190    2.578  100.8   22.7    96   12.8 
2026-08-25 00:00 UT   16 32 02.1   -39 22 01     2.195    2.577  100.4   22.7    96   12.8 
2026-08-26 00:00 UT   16 33 03.0   -39 16 40     2.206    2.576   99.7   22.8    96   12.8 
2026-08-27 00:00 UT   16 34 05.2   -39 11 23     2.217    2.575   98.9   22.8    96   12.8 
2026-08-28 00:00 UT   16 35 08.9   -39 06 09     2.227    2.574   98.2   22.9    96   12.9 
2026-08-29 00:00 UT   16 36 13.9   -39 00 59     2.238    2.572   97.5   22.9    96   12.9 
2026-08-30 00:00 UT   16 37 20.2   -38 55 51     2.249    2.571   96.8   23.0    96   12.9 
2026-08-31 00:00 UT   16 38 27.8   -38 50 48     2.260    2.570   96.0   23.0    97   12.9 
2026-09-01 00:00 UT   16 39 36.7   -38 45 47     2.270    2.569   95.3   23.0    97   12.9 
2026-09-02 00:00 UT   16 40 46.8   -38 40 50     2.281    2.568   94.6   23.1    97   12.9 
2026-09-03 00:00 UT   16 41 58.2   -38 35 55     2.292    2.567   93.9   23.1    97   12.9 
2026-09-04 00:00 UT   16 43 10.8   -38 31 03     2.303    2.565   93.2   23.1    97   12.9 
2026-09-05 00:00 UT   16 44 24.7   -38 26 14     2.314    2.564   92.5   23.1    97   12.9 
2026-09-06 00:00 UT   16 45 39.7   -38 21 28     2.325    2.563   91.8   23.1    97   13.0 
2026-09-07 00:00 UT   16 46 55.9   -38 16 45     2.336    2.562   91.1   23.2    97   13.0 
2026-09-08 00:00 UT   16 48 13.2   -38 12 04     2.347    2.561   90.4   23.2    97   13.0 
2026-09-09 00:00 UT   16 49 31.7   -38 07 25     2.358    2.560   89.7   23.2    97   13.0 
2026-09-10 00:00 UT   16 50 51.3   -38 02 49     2.369    2.558   89.0   23.2    97   13.0 
2026-09-11 00:00 UT   16 52 12.1   -37 58 15     2.380    2.557   88.4   23.2    97   13.0 
2026-09-12 00:00 UT   16 53 33.9   -37 53 43     2.391    2.556   87.7   23.2    97   13.0 
2026-09-13 00:00 UT   16 54 56.7   -37 49 13     2.402    2.555   87.0   23.2    97   13.0 
2026-09-14 00:00 UT   16 56 20.6   -37 44 44     2.413    2.554   86.3   23.2    97   13.0 
2026-09-15 00:00 UT   16 57 45.6   -37 40 18     2.424    2.553   85.6   23.1    98   13.0 
2026-09-16 00:00 UT   16 59 11.5   -37 35 53     2.435    2.552   85.0   23.1    98   13.0 
2026-09-17 00:00 UT   17 00 38.5   -37 31 30     2.446    2.550   84.3   23.1    98   13.1 
2026-09-18 00:00 UT   17 02 06.4   -37 27 08     2.457    2.549   83.6   23.1    98   13.1 
2026-09-19 00:00 UT   17 03 35.2   -37 22 47     2.468    2.548   83.0   23.0    98   13.1 
2026-09-20 00:00 UT   17 05 05.0   -37 18 27     2.479    2.547   82.3   23.0    98   13.1 
2026-09-21 00:00 UT   17 06 35.7   -37 14 09     2.490    2.546   81.7   23.0    98   13.1 
2026-09-22 00:00 UT   17 08 07.3   -37 09 51     2.501    2.545   81.0   22.9    98   13.1 
2026-09-23 00:00 UT   17 09 39.8   -37 05 34     2.512    2.544   80.4   22.9    98   13.1 


    Terminology:
            
    delta:  distance between minor planet and earth in AU
    radius: distance between minor planet and sun in AU
    magn:   magnitude (brightness) estimate    
    ra:     right ascension in hours (24h = 360deg)
    dec:    declination in degrees
    elong:  elongation in degrees (angle sun-earth-minor planet)    
    phase:  phase angle in degrees (angle sun-minor planet-earth)        
    AU:     Astronomical Unit (mean distance between earth and sun: 149597870.7 km
    

Orbital elements provided by the MPC (Minor Planet Center).
Calculations by a modified version of AAPlus, a C# implementation of the AA+ project by PJ Naughter from the algorithms presented in the book "Astronomical Algorithms" by Jean Meeus.
NGC2000 dso catalog and star labels from VizieR as provided by the Strasbourg astronomical Data Center.
Tycho2 catalog from the ESO archive.